Belize, Belize

8:37 PM CST on March 25, 2017 (GMT -0600)
Philip S W Goldson International

Weather History for MZBZ - December, 2014

Change the Weather History Date:

Friday, December 19, 2014

  Actual Average Record
Temperature  
Mean Temperature 74 °F -  
Max Temperature 81 °F - 87 °F (2002)
Min Temperature 67 °F 68 °F 64 °F (2003)
Cooling Degree Days 9    
Growing Degree Days 24 (Base 50)    
Moisture  
Dew Point 71 °F    
Average Humidity 86    
Maximum Humidity 95    
Minimum Humidity 69    
Precipitation  
Precipitation 0.00 in 0.20 in - ()
Sea Level Pressure  
Sea Level Pressure 29.94 in    
Wind  
Wind Speed 4 mph ()    
Max Wind Speed 8 mph    
Max Gust Speed -    
Visibility 8.2 miles    
Events Rain    
Averages and records for this station are not official NWS values.
T = Trace of Precipitation, MM = Missing Value Source: Averaged Metar Reports

Daily Weather History Graph

Daily Weather History Graph

Search for Another Location

Airport or City:

Trip Planner

Search our weather history database for the weather conditions in past years. The results will help you decide how hot, cold, wet, or windy it might be!

Date:

Astronomy

Dec. 19, 2014 Rise Set
Actual Time 6:17 AM CST 5:22 PM CST
Civil Twilight 5:54 AM CST 5:46 PM CST
Nautical Twilight 5:27 AM CST 6:13 PM CST
Astronomical Twilight 5:00 AM CST 6:40 PM CST
Moon 3:49 AM CST (12/19) 3:30 PM CST (12/19)
Length of Visible Light 11h 52m
Length of Day
11h 05m
Waning Crescent, 7% of the Moon is Illuminated
Dec 19
Waning Crescent
Dec 21
New
Dec 28
First Quarter
Jan 4
Full
Jan 13
Last Quarter

Hourly Weather History & Observations

Time (CST) Temp. Heat Index Dew Point Humidity Pressure Visibility Wind Dir Wind Speed Gust Speed Precip Events Conditions
12:00 AM 71 °F - 69 °F 92% 29.99 in 12 mi WNW 3.5 mph - -   Scattered Clouds
3:00 AM 70 °F - 69 °F 94% 29.94 in 12 mi WSW 2.3 mph - -   Mostly Cloudy
5:00 AM 69.8 °F - 68.0 °F 94% 29.94 in 6.2 mi West 3.5 mph - N/A   Mostly Cloudy
6:00 AM 68 °F - 67 °F 94% 29.96 in 12 mi West 3.5 mph - -   Mostly Cloudy
6:00 AM 68.0 °F - 66.2 °F 94% 29.96 in 6.2 mi West 3.5 mph - N/A   Mostly Cloudy
7:00 AM 68.0 °F - 66.2 °F 94% 29.98 in 6.2 mi West 3.5 mph - N/A   Mostly Cloudy
8:00 AM 69.8 °F - 68.0 °F 94% 29.99 in 6.2 mi West 4.6 mph - N/A   Mostly Cloudy
9:00 AM 74 °F - 70 °F 84% 30.00 in 12 mi WNW 5.8 mph - -   Partly Cloudy
9:00 AM 75.2 °F - 69.8 °F 83% 29.99 in 6.2 mi WNW 5.8 mph - N/A   Scattered Clouds
10:00 AM 78.8 °F - 71.6 °F 78% 29.98 in 6.2 mi NW 5.8 mph - N/A   Mostly Cloudy
11:00 AM 80.6 °F 85.4 °F 73.4 °F 79% 29.97 in 6.2 mi NW 5.8 mph - N/A   Mostly Cloudy
12:00 PM 82 °F - 73 °F 69% 29.94 in 12 mi Calm Calm - - Rain Light Rain Showers
12:00 PM 82.4 °F 88.2 °F 73.4 °F 74% 29.94 in 6.2 mi WSW 4.6 mph - N/A Rain Light Rain Showers
1:00 PM 80.6 °F 85.4 °F 73.4 °F 79% 29.91 in 6.2 mi NNW 4.6 mph - N/A Rain Light Rain Showers
1:24 PM 80.6 °F 85.4 °F 73.4 °F 79% 29.90 in 3.1 mi North 8.1 mph - N/A Rain Rain Showers
2:00 PM 77.0 °F - 75.2 °F 94% 29.90 in 6.2 mi North 3.5 mph - N/A Rain Light Rain Showers
3:00 PM 78 °F - 73 °F 80% 29.88 in 12 mi NW 6.9 mph - -   Partly Cloudy
3:00 PM 78.8 °F - 73.4 °F 83% 29.87 in 6.2 mi NW 6.9 mph - N/A   Mostly Cloudy
4:00 PM 77.0 °F - 73.4 °F 89% 29.88 in 6.2 mi NW 5.8 mph - N/A   Mostly Cloudy
5:00 PM 78.8 °F - 73.4 °F 83% 29.88 in 6.2 mi West 3.5 mph - N/A   Mostly Cloudy
6:00 PM 77 °F - 73 °F 85% 29.91 in 12 mi North 3.5 mph - -   Partly Cloudy
6:00 PM 77.0 °F - 73.4 °F 89% 29.90 in 6.2 mi North 3.5 mph - N/A   Mostly Cloudy
9:00 PM 74 °F - 73 °F 95% 29.94 in 14 mi NNE 3.5 mph - -   Scattered Clouds